FW0824 Weather Reports


time (UTC)temp
C
wind
direction
speed
KPH
gust
KPH
rain 1hr
cm
rain 24hr
cm
rain mn
cm
humidity
%
barometer
mb
20230207110229 1 299 1.6 12.9 0.00 0.00 0.15 87 1009.3
20230207105228 1 235 4.8 14.5 0.00 0.00 0.15 87 1009.1
20230207104729 1 355 4.8 14.5 0.00 0.00 0.15 87 1009.0
20230207104229 1 313 3.2 14.5 0.00 0.00 0.15 87 1008.8
20230207103729 1 274 0.0 11.3 0.00 0.00 0.15 87 1008.8
20230207101729 1 268 0.0 6.4 0.00 0.00 0.15 88 1008.6
20230207101229 1 290 1.6 12.9 0.00 0.00 0.15 88 1008.6
20230207100730 1 326 4.8 19.3 0.00 0.00 0.15 88 1008.6
20230207100230 1 300 6.4 19.3 0.00 0.00 0.15 88 1008.5
20230207095729 1 333 4.8 14.5 0.00 0.00 0.15 88 1008.4
20230207095229 1 302 4.8 16.1 0.00 0.00 0.15 89 1008.4
20230207094730 1 304 6.4 16.1 0.00 0.00 0.15 89 1008.1
20230207094230 1 337 8.0 24.1 0.00 0.00 0.15 89 1008.0
20230207093730 1 327 8.0 24.1 0.00 0.00 0.15 89 1007.7
20230207093229 1 303 8.0 16.1 0.00 0.00 0.15 90 1007.7
20230207092729 1 321 6.4 16.1 0.00 0.00 0.15 90 1007.4
20230207092228 1 333 4.8 17.7 0.00 0.00 0.15 90 1007.4
20230207091729 0 312 1.6 17.7 0.00 0.00 0.15 90 1007.3
20230207091228 0 296 3.2 17.7 0.00 0.00 0.15 90 1007.1
20230207090729 0 259 4.8 17.7 0.00 0.00 0.15 90 1007.1
20230207090228 0 11 4.8 14.5 0.00 0.00 0.15 91 1007.0
20230207085730 0 299 4.8 19.3 0.00 0.00 0.15 91 1007.0
20230207085229 0 305 6.4 19.3 0.00 0.00 0.15 91 1006.8
20230207084729 0 266 6.4 17.7 0.00 0.00 0.15 91 1006.7
20230207084228 0 274 8.0 22.5 0.00 0.00 0.15 91 1006.6
20230207083729 1 245 8.0 22.5 0.00 0.00 0.15 91 1006.5
20230207083229 1 274 3.2 22.5 0.00 0.00 0.15 92 1006.5
20230207082728 1 236 1.6 11.3 0.00 0.00 0.15 92 1006.3
20230207082229 1 290 4.8 16.1 0.00 0.00 0.15 92 1006.2
20230207081729 1 341 6.4 16.1 0.00 0.00 0.15 92 1006.1
20230207081229 1 336 3.2 14.5 0.00 0.00 0.15 92 1006.1
20230207080724 1 280 3.2 11.3 0.00 0.00 0.15 92 1005.9
20230207080218 0 241 4.8 11.3 0.00 0.00 0.15 92 1005.8
20230207075711 0 246 4.8 14.5 0.00 0.00 0.15 92 1005.5
20230207075208 0 328 4.8 14.5 0.00 0.00 0.15 93 1005.3
20230207074707 0 306 4.8 14.5 0.00 0.00 0.15 93 1005.2
20230207074208 0 261 4.8 14.5 0.00 0.00 0.15 93 1005.1
20230207073706 0 252 3.2 11.3 0.00 0.00 0.15 93 1005.0
20230207073207 1 304 3.2 11.3 0.00 0.00 0.15 93 1005.0
20230207072206 0 304 3.2 16.1 0.00 0.00 0.15 93 1004.8
20230207071708 0 279 3.2 16.1 0.00 0.00 0.15 93 1004.6
20230207071211 0 304 4.8 11.3 0.00 0.00 0.15 93 1004.5
20230207070705 0 323 3.2 11.3 0.00 0.00 0.15 93 1004.4
20230207070202 0 254 1.6 11.3 0.00 0.00 0.15 93 1004.3
20230207065702 0 292 1.6 9.7 0.00 0.00 0.15 93 1004.3
20230207065202 0 294 3.2 9.7 0.00 0.00 0.15 93 1004.2
20230207064701 0 317 1.6 11.3 0.00 0.00 0.15 93 1004.2
20230207063702 0 266 4.8 17.7 0.00 0.00 0.15 93 1004.2
20230207063202 0 262 4.8 17.7 0.00 0.00 0.15 93 1004.0
20230207062701 0 246 4.8 11.3 0.00 0.00 0.15 93 1003.9
20230207061701 0 344 4.8 16.1 0.00 0.00 0.15 93 1003.9
20230207061201 0 255 3.2 9.7 0.00 0.00 0.15 93 1003.8
20230207060201 0 260 4.8 14.5 0.00 0.00 0.15 93 1003.6
20230207055701 0 249 3.2 11.3 0.00 0.00 0.15 94 1003.5
20230207055200 1 255 3.2 11.3 0.00 0.00 0.15 94 1003.4
20230207054701 1 215 3.2 12.9 0.00 0.00 0.15 94 1003.5
20230207054202 1 262 3.2 12.9 0.00 0.00 0.15 94 1003.4
20230207053700 1 255 3.2 9.7 0.03 0.00 0.15 94 1003.4
20230207053202 1 293 1.6 6.4 0.03 0.00 0.15 94 1003.4
20230207052700 1 298 3.2 6.4 0.03 0.00 0.15 94 1003.2
20230207052202 1 289 3.2 6.4 0.03 0.00 0.15 93 1003.2
20230207051700 1 288 3.2 6.4 0.03 0.00 0.15 93 1003.1
20230207050700 1 254 3.2 11.3 0.03 0.00 0.15 93 1003.2
20230207050200 1 261 3.2 16.1 0.03 0.00 0.15 93 1003.1
20230207045701 1 327 3.2 16.1 0.03 0.00 0.15 93 1003.1
20230207045201 1 246 1.6 11.3 0.03 0.00 0.15 93 1003.0
20230207044700 1 255 1.6 11.3 0.03 0.00 0.15 93 1003.0
20230207044201 1 288 3.2 11.3 0.03 0.00 0.15 93 1003.1
20230207043700 1 264 3.2 11.3 0.00 0.00 0.13 93 1002.9
20230207043201 1 265 1.6 12.9 0.00 0.00 0.13 93 1002.8
20230207042702 1 259 1.6 12.9 0.00 0.00 0.13 93 1002.8
20230207042201 1 252 1.6 14.5 0.03 0.00 0.13 93 1002.7
20230207040659 1 258 1.6 11.3 0.03 0.00 0.13 93 1002.7
20230207040158 1 236 4.8 11.3 0.03 0.00 0.13 93 1002.8
20230207035659 1 254 4.8 11.3 0.03 0.00 0.13 93 1002.8
20230207035159 1 255 3.2 11.3 0.03 0.00 0.13 93 1002.7
20230207034658 1 248 1.6 11.3 0.03 0.00 0.13 93 1002.8
20230207034158 1 192 0.0 11.3 0.03 0.00 0.13 93 1002.9
20230207033156 1 223 0.0 0.0 0.05 0.00 0.13 93 1002.8
20230207032157 1 222 0.0 6.4 0.03 0.00 0.10 93 1002.8
20230207031651 1 228 1.6 8.0 0.03 0.00 0.10 93 1002.9
20230207031144 1 209 3.2 8.0 0.03 0.00 0.10 93 1002.8
20230207030645 1 209 3.2 8.0 0.03 0.00 0.10 93 1002.8
20230207025642 1 136 1.6 3.2 0.05 0.00 0.10 93 1002.8
20230207025142 1 136 1.6 3.2 0.05 0.00 0.10 93 1002.7
20230207024640 1 136 1.6 4.8 0.05 0.00 0.10 93 1002.7
20230207024139 1 136 1.6 4.8 0.05 0.00 0.10 93 1002.7
20230207023141 1 136 3.2 6.4 0.03 0.00 0.08 93 1002.5
20230207022637 1 137 3.2 6.4 0.03 0.00 0.08 93 1002.5
20230207021635 1 137 1.6 6.4 0.05 0.00 0.08 92 1002.8
20230207021135 1 137 1.6 6.4 0.05 0.00 0.08 92 1002.7
20230207020632 1 136 0.0 6.4 0.05 0.00 0.08 92 1002.8
20230207020130 1 138 3.2 14.5 0.05 0.00 0.08 92 1002.8
20230207015630 1 140 3.2 14.5 0.03 0.00 0.05 92 1002.9
20230207014631 1 144 3.2 12.9 0.03 0.00 0.05 92 1003.1
20230207014129 1 139 3.2 12.9 0.05 0.00 0.05 92 1003.3
20230207013630 1 136 1.6 8.0 0.05 0.00 0.05 92 1003.3
20230207013126 1 132 1.6 6.4 0.05 0.00 0.05 92 1003.4
20230207012621 1 136 0.0 0.0 0.05 0.00 0.05 92 1003.5
20230207012114 1 129 0.0 0.0 0.03 0.00 0.03 92 1003.7
20230207011609 1 129 0.0 0.0 0.03 0.00 0.03 91 1003.6
20230207010602 1 132 1.6 12.9 0.03 0.00 0.03 91 1003.6
20230207010102 1 130 3.2 12.9 0.03 0.00 0.03 91 1003.7
20230207005602 1 133 3.2 6.4 0.05 0.00 0.00 91 1003.8
20230207005102 1 134 1.6 6.4 0.05 0.00 0.00 91 1003.8
20230207004602 1 136 0.0 0.0 0.05 0.00 0.00 91 1003.9
20230207004102 1 134 0.0 0.0 0.03 0.00 0.00 90 1004.0
20230207003601 1 126 1.6 11.3 0.03 0.00 0.00 90 1004.0
20230207003100 1 134 1.6 12.9 0.05 0.00 0.00 90 1004.1
20230207002603 1 134 1.6 12.9 0.05 0.00 0.00 90 1004.0
20230207002102 1 130 0.0 6.4 0.05 0.00 0.00 89 1004.0
20230207001602 1 134 0.0 6.4 0.05 0.00 0.00 89 1004.0
20230207000601 1 134 0.0 0.0 0.05 0.00 0.00 88 1004.0
20230207000100 1 126 0.0 0.0 0.05 0.00 0.00 88 1004.0
20230206235602 1 116 0.0 0.0 0.03 0.00 0.03 88 1004.1
20230206235101 1 135 1.6 11.3 0.03 0.00 0.03 87 1004.3
20230206234602 1 136 3.2 11.3 0.03 0.00 0.03 87 1004.3
20230206234057 1 134 0.0 4.8 0.03 0.00 0.03 86 1004.2
20230206233550 1 131 0.0 0.0 0.03 0.00 0.03 86 1004.3
20230206233045 1 128 0.0 0.0 0.00 0.00 0.00 86 1004.2
20230206232546 1 138 0.0 0.0 0.00 0.00 0.00 85 1004.4
20230206232046 1 132 0.0 0.0 0.00 0.00 0.00 85 1004.4
20230206231042 1 130 0.0 0.0 0.00 0.00 0.00 85 1004.4
20230206230540 1 134 0.0 0.0 0.00 0.00 0.00 85 1004.4
20230206225035 1 134 0.0 0.0 0.00 0.00 0.00 85 1004.4
20230206224533 1 132 0.0 11.3 0.00 0.00 0.00 86 1004.3
20230206223033 1 134 0.0 6.4 0.00 0.00 0.00 87 1004.3
20230206222532 1 141 0.0 0.0 0.00 0.00 0.00 87 1004.5
20230206222030 1 130 0.0 0.0 0.00 0.00 0.00 87 1004.7
20230206221030 1 113 1.6 16.1 0.00 0.00 0.00 87 1004.6
20230206215530 1 137 1.6 17.7 0.00 0.00 0.00 84 1004.3
20230206215026 1 121 1.6 19.3 0.00 0.00 0.00 83 1004.3
20230206214521 1 144 3.2 25.7 0.00 0.00 0.00 82 1004.4
20230206214014 1 115 1.6 25.7 0.00 0.00 0.00 81 1004.3
20230206213508 1 115 0.0 19.3 0.00 0.00 0.00 80 1004.3
20230206213008 1 107 0.0 19.3 0.00 0.00 0.00 80 1004.4
20230206212509 1 111 0.0 0.0 0.00 0.00 0.00 80 1004.4
20230206211508 1 100 1.6 17.7 0.00 0.00 0.00 79 1004.3
20230206211009 1 117 1.6 17.7 0.00 0.00 0.00 79 1004.4
20230206210507 1 110 0.0 0.0 0.00 0.00 0.00 78 1004.6
20230206210008 1 107 0.0 16.1 0.00 0.00 0.00 78 1004.8
20230206205507 1 103 1.6 17.7 0.00 0.00 0.00 77 1004.9
20230206205006 1 121 1.6 17.7 0.00 0.00 0.00 76 1005.1
20230206204509 1 100 3.2 25.7 0.00 0.00 0.00 76 1005.2
20230206204005 1 149 3.2 27.4 0.00 0.00 0.00 76 1005.4
20230206203507 1 114 0.0 27.4 0.00 0.00 0.00 75 1005.8
20230206203007 1 143 0.0 6.4 0.00 0.00 0.00 75 1005.8
20230206202506 1 142 0.0 6.4 0.00 0.00 0.00 75 1006.3
20230206202007 1 119 0.0 0.0 0.00 0.00 0.00 75 1006.6
20230206201506 1 107 0.0 11.3 0.00 0.00 0.00 75 1006.7
20230206201007 1 89 0.0 11.3 0.00 0.00 0.00 75 1006.9
20230206200506 1 134 0.0 6.4 0.00 0.00 0.00 74 1007.2
20230206200006 1 103 0.0 6.4 0.00 0.00 0.00 74 1007.3
20230206195505 1 133 0.0 6.4 0.00 0.00 0.00 74 1007.6
20230206195009 1 109 0.0 14.5 0.00 0.00 0.00 73 1007.7
20230206194506 1 103 0.0 14.5 0.00 0.00 0.00 73 1008.0
20230206194007 1 127 0.0 0.0 0.00 0.00 0.00 73 1008.3
20230206193507 1 126 0.0 0.0 0.00 0.00 0.00 73 1008.3
20230206193006 1 134 0.0 0.0 0.00 0.00 0.00 73 1008.2
20230206192002 2 0.0 0.0 0.00 0.00 0.00 71 1008.6
20230206190701 3 146 3.2 29.0 0.00 0.00 0.00 71 1008.9
20230206190200 2 144 6.4 35.4 0.00 0.00 0.00 71 1009.0
20230206185201 2 148 3.2 38.6 0.00 0.00 0.00 71 1009.0
20230206184701 3 117 1.6 20.9 0.00 0.00 0.00 70 1009.1
20230206184200 3 165 3.2 25.7 0.00 0.00 0.00 71 1009.5
20230206183701 3 107 1.6 25.7 0.00 0.00 0.00 71 1009.5
20230206183200 3 183 4.8 30.6 0.00 0.00 0.00 72 1009.8
20230206182700 2 159 11.3 30.6 0.00 0.00 0.00 72 1010.0
20230206181700 2 126 3.2 30.6 0.00 0.00 0.00 72 1010.3
20230206181201 1 162 1.6 25.7 0.00 0.00 0.00 73 1010.5
20230206180700 1 115 1.6 25.7 0.00 0.00 0.00 73 1010.7
20230206180201 1 122 3.2 32.2 0.00 0.00 0.00 73 1010.8
20230206175701 1 148 6.4 33.8 0.00 0.00 0.00 73 1011.2
20230206175201 1 126 4.8 33.8 0.00 0.00 0.00 73 1011.5
20230206174701 1 155 3.2 29.0 0.00 0.00 0.00 74 1011.7
20230206174202 0 144 3.2 29.0 0.00 0.00 0.00 74 1011.7
20230206173702 0 134 1.6 29.0 0.00 0.00 0.00 75 1011.7
20230206173201 0 131 1.6 27.4 0.00 0.00 0.00 74 1012.0
20230206172702 0 111 3.2 27.4 0.00 0.00 0.00 75 1012.1
20230206172201 0 158 3.2 22.5 0.00 0.00 0.00 76 1012.4
20230206171201 0 169 1.6 22.5 0.00 0.00 0.00 76 1012.5
20230206170701 -1 173 1.6 17.7 0.00 0.00 0.00 76 1012.4
20230206170202 -1 123 1.6 16.1 0.00 0.00 0.00 77 1012.4
20230206165701 -1 145 0.0 11.3 0.00 0.00 0.00 77 1012.5
20230206165202 -1 132 0.0 0.0 0.00 0.00 0.00 77 1012.4
20230206164701 -1 117 0.0 6.4 0.00 0.00 0.00 77 1012.5
20230206164201 -1 123 4.8 22.5 0.00 0.00 0.00 78 1012.7
20230206163201 -2 122 8.0 27.4 0.00 0.00 0.00 78 1012.7
20230206162701 -2 159 4.8 24.1 0.00 0.00 0.00 78 1012.8
20230206162201 -2 128 4.8 27.4 0.00 0.00 0.00 78 1012.8
20230206161701 -2 153 3.2 29.0 0.00 0.00 0.00 79 1012.9
20230206161201 -2 132 4.8 29.0 0.00 0.00 0.00 79 1012.6
20230206160702 -2 122 6.4 29.0 0.00 0.00 0.00 80 1012.7
20230206160200 -3 165 11.3 29.0 0.00 0.00 0.00 80 1013.0
20230206155702 -3 150 12.9 25.7 0.00 0.00 0.00 80 1013.0
20230206155200 -3 155 9.7 24.1 0.00 0.00 0.00 80 1013.3
20230206154702 -3 134 6.4 24.1 0.00 0.00 0.00 80 1013.4
20230206154201 -3 144 3.2 24.1 0.00 0.00 0.00 80 1013.5
20230206153700 -3 128 1.6 17.7 0.00 0.00 0.00 80 1013.7
20230206153201 -3 132 4.8 22.5 0.00 0.00 0.00 80 1013.9
20230206152700 -3 137 1.6 22.5 0.00 0.00 0.00 80 1014.0
20230206151702 -4 98 1.6 12.9 0.00 0.00 0.00 81 1014.3
20230206150700 -4 120 11.3 27.4 0.00 0.00 0.00 83 1014.4
20230206145200 -5 142 9.7 17.7 0.00 0.00 0.00 84 1014.4
20230206144701 -5 139 9.7 19.3 0.00 0.00 0.00 84 1014.6
20230206144201 -5 136 8.0 19.3 0.00 0.00 0.00 85 1014.8
20230206143702 -5 147 8.0 17.7 0.00 0.00 0.00 85 1015.0
20230206143201 -6 136 9.7 17.7 0.00 0.00 0.00 86 1015.0
20230206142703 -6 136 8.0 16.1 0.00 0.00 0.00 86 1015.1
20230206141702 -6 169 8.0 17.7 0.00 0.00 0.00 86 1015.2
20230206140701 -7 147 9.7 17.7 0.00 0.00 0.00 86 1015.2
20230206140200 -7 115 9.7 17.7 0.00 0.00 0.00 86 1015.1
20230206135701 -7 143 8.0 16.1 0.00 0.00 0.00 86 1015.1
20230206134700 -7 134 9.7 14.5 0.00 0.00 0.00 86 1015.4
20230206134201 -7 132 8.0 16.1 0.00 0.00 0.00 86 1015.5
20230206133654 -7 138 6.4 16.1 0.00 0.00 0.00 86 1015.6
20230206133146 -7 142 6.4 16.1 0.00 0.00 0.00 86 1015.6
20230206132646 -7 138 8.0 16.1 0.00 0.00 0.00 86 1015.5
20230206132144 -7 143 8.0 16.1 0.00 0.00 0.00 86 1015.5
20230206131644 -7 132 9.7 17.7 0.00 0.00 0.00 86 1015.6
20230206130645 -7 128 9.7 16.1 0.00 0.00 0.00 86 1015.8
20230206130138 -7 144 9.7 19.3 0.00 0.00 0.00 86 1015.9
20230206125632 -7 129 9.7 19.3 0.00 0.00 0.00 86 1015.9
20230206125130 -7 136 9.7 17.7 0.00 0.00 0.00 86 1015.8
20230206124630 -7 141 8.0 16.1 0.00 0.00 0.00 86 1015.8
20230206124130 -7 138 6.4 16.1 0.00 0.00 0.00 86 1016.0
20230206123129 -7 128 4.8 11.3 0.00 0.00 0.00 86 1016.4
20230206122630 -7 132 6.4 16.1 0.00 0.00 0.00 86 1016.5
20230206122129 -7 132 6.4 16.1 0.00 0.00 0.00 86 1016.3
20230206121629 -7 144 6.4 11.3 0.00 0.00 0.00 86 1016.5
20230206121130 -7 121 6.4 12.9 0.00 0.00 0.00 86 1016.5
20230206120629 -7 137 4.8 12.9 0.00 0.00 0.00 86 1016.5
20230206120129 -7 142 6.4 16.1 0.00 0.00 0.00 86 1016.7
20230206115130 -7 131 8.0 14.5 0.00 0.00 0.00 86 1016.5
20230206114629 -7 155 6.4 14.5 0.00 0.00 0.00 87 1016.4
20230206114129 -7 140 3.2 11.3 0.00 0.00 0.00 87 1016.7
20230206113629 -7 140 4.8 14.5 0.00 0.00 0.00 87 1016.8
20230206112630 -7 203 4.8 14.5 0.00 0.00 0.00 87 1016.9
20230206111629 -7 160 8.0 17.7 0.00 0.00 0.00 87 1016.9
20230206111129 -7 122 8.0 14.5 0.00 0.00 0.00 87 1016.8